LTAU

Details ICAO LTAU (ASR)
Name ERKILET
Region Turkey
Timezone Europe/Istanbul (UTC+3.0)
Plans Departing 77
Arriving 85
Stats Elevation 3,463 ft / 1,056 m (AMSL)
Location 38.770384° 35.495427°
Runways 1
Magnetic Variation 5.693° E
Sunrise 2018-05-24 02:20:40 UTC / 2018-05-24 05:20:40 Local
Sunset 2018-05-24 16:51:54 UTC / 2018-05-24 19:51:54 Local
Advertisement - Login to hide

Runways

ID Width Length Bearing (true) Bearing (mag) Surface Threshold Offset Overrun Length
07 145 ft / 44 m 9,822 ft / 2,994 m 76.29° 70.60° Concrete 0 ft / 0 m 500 ft / 152 m
25 145 ft / 44 m 9,822 ft / 2,994 m 256.31° 250.62° Concrete 0 ft / 0 m 500 ft / 152 m

Approach Navaids

Runway Type Ident Frequency Range Bearing (true) Bearing (mag) Slope Elevation
25 Localiser IKSR 110.30 MHz 18 nm / 33 km 256.40° 250.71° - 3,453 ft / 1,052 m (AMSL)
25 Glidescope IKSR 110.30 MHz 10 nm / 19 km 256.30° 250.61° 3.00° 3,463 ft / 1,056 m (AMSL)

Map

Weather


0- 5 10 15 20 25 30 35+ Temperature / ° C

Clouds and Precipitation
Forecast for 2018-05-24 06:00 UTC. Updated 2 hours ago

Ground ~20,000 ft ~40,000 ft Winds

METAR

LTAU 240650Z 20001KT 9999 FEW040 23/07 Q1018 NOSIG

TAF

Not found

Frequencies

Ground 121.95 MHz GND
Approach 122.10 MHz APP
Tower 122.10 MHz TWR
Warning: Do not use this data for real-world aviation or navigation. No guarantee of current accuracy is given.